Location: Fort Worth, Tx
(32.7431°N, 97.3695°W)
Time: 09:01:01
(UTC-04:00)

A-11 Canister half - Pass Details

Date: 19 August 2024
Orbit: 1524 x 1684 km, 47.3° (Epoch: 13 September)

Event Time Altitude Azimuth Distance (km) Brightness Sun altitude
Rises 06:58:06 0° 304° (NW) 4,933 11.3 -12.3°
Reaches altitude 10° 07:01:24 10° 300° (WNW) 3,933 10.8 -11.7°
Maximum altitude 07:11:01 52° 228° (SW) 1,976 9.2 -9.8°
Drops below altitude 10° 07:20:21 10° 155° (SSE) 3,817 11.1 -8.0°
Sets 07:23:31 0° 150° (SSE) 4,778 11.7 -7.4°
